SCP
0 0 0 0 0 0 0 0 0 0 0 0 0 0 0 0 0 0 0 0 0 0 -0 -0 -0 -0 -0 -0 -0 -1 -1 -1 -1 -1 -1 -0 -0 -0 -0 -0 -0 -0 -0 -0 -0 -0 -0 0 0
0 0 0 0 0 0 0 0 0 0 0 0 0 0 0 0 0 0 0 0 0 0 0 -0 -0 -0 -0 -0 -0 -0 -1 -1 -1 -0 -0 -0 -0 -0 -0 -0 -0 -0 -0 -0 -0 -0 0 0 0
0 0 0 0 0 0 0 0 0 0 0 0 0 0 0 0 0 0 0 0 0 0 0 0 -0 -0 -0 -0 -0 -0 -0 -1 -1 -1 -0 -0 -0 -0 -0 -0 -0 -0 -0 -0 -0 -0 0 0 0
0 0 0 0 0 0 0 0 0 0 0 0 0 0 0 0 0 0 0 0 1 1 0 0 0 -0 -0 -0 -0 -0 -0 -0 -0 -1 -0 -0 -0 -0 -0 -0 -0 -0 0 0 0 0 0 0 0
0 0 0 0 0 0 0 0 0 0 0 0 0 0 0 0 1 0 0 0 0 0 1 1 0 0 0 -0 -0 -0 -0 -0 -0 -0 -0 -0 -0 -0 -0 -0 -0 0 0 0 0 0 0 0 0
0 0 0 0 0 0 0 0 0 0 0 0 0 0 0 0 1 1 0 0 0 0 1 1 0 0 0 0 0 0 -0 -0 -0 -0 -0 -0 -0 -0 -0 -0 -0 0 0 0 0 0 0 0 0
0 0 0 0 0 0 0 0 0 0 0 0 0 0 0 0 0 1 1 0 0 0 0 1 1 1 0 0 0 0 0 0 -0 -0 -0 -0 -0 -0 -0 -0 0 0 0 0 0 0 0 0 0
0 0 0 0 0 0 0 0 0 0 0 0 0 0 0 0 0 1 1 1 1 0 0 0 0 1 1 1 0 0 0 0 0 0 0 0 0 0 0 0 0 0 0 0 0 0 0 0 0
0 0 0 0 0 0 0 0 0 0 0 0 0 0 0 0 0 1 1 1 1 1 0 0 0 1 1 1 1 1 0 0 0 0 0 0 0 0 0 0 0 0 0 0 0 0 0 0 0
0 0 0 0 0 0 0 0 0 0 0 0 0 0 0 0 0 0 0 0 1 1 1 1 1 1 1 1 1 1 1 1 1 1 1 0 0 0 0 0 0 0 0 0 0 0 0 0 0
0 0 0 0 0 0 0 0 0 0 0 0 0 0 0 0 0 0 0 0 1 1 1 1 1 1 1 1 2 2 2 1 1 1 1 1 0 0 0 0 0 0 0 0 0 0 0 0 0
0 0 0 0 0 0 0 0 0 0 0 0 0 0 0 0 0 0 0 0 0 0 1 1 1 1 1 2 2 1 2 2 1 1 1 0 0 0 0 0 0 0 0 0 0 0 0 0 0
0 0 0 0 0 0 0 0 0 0 0 0 0 0 0 0 0 0 0 0 0 0 0 1 2 2 1 1 2 2 2 2 2 1 0 0 0 0 0 0 0 0 0 0 0 0 0 0 0
0 0 0 0 0 0 0 0 0 -0 0 0 0 0 0 0 0 0 0 0 0 0 0 0 1 1 2 2 2 2 2 2 1 1 1 0 0 0 0 0 0 0 0 0 0 0 0 0 0
0 0 0 0 0 0 0 0 0 -0 -0 -0 0 -0 0 0 -0 0 0 0 0 0 0 0 1 3 2 2 2 2 2 2 1 1 1 0 0 0 0 0 0 0 0 0 0 0 0 0 0
0 0 0 0 0 0 0 0 0 0 0 0 -0 -0 -0 0 -0 0 0 0 0 0 0 0 0 2 2 2 3 3 3 2 2 2 1 1 0 0 0 0 0 0 0 0 0 0 0 0 0
0 0 0 0 0 0 0 0 0 0 0 0 -0 -0 -0 -0 -0 -0 0 0 0 0 0 0 0 1 2 2 3 3 3 3 3 2 2 1 1 0 0 0 0 0 0 0 0 0 0 0 0
0 0 0 0 0 0 0 0 0 0 0 0 0 0 -0 -0 0 0 0 0 0 0 0 0 0 0 2 3 3 3 2 3 3 2 2 1 1 0 0 0 0 0 0 0 0 0 0 0 0
0 0 0 0 0 0 0 0 0 0 0 0 0 0 0 0 0 0 0 0 0 0 0 0 0 0 1 3 3 2 2 2 2 2 2 2 1 1 0 0 0 0 0 0 0 0 0 0 0
0 0 0 0 0 0 0 0 0 0 0 0 0 0 0 0 0 0 0 0 0 0 0 0 0 0 0 2 4 3 3 2 3 2 2 2 2 1 1 0 0 0 0 0 0 0 0 0 0
0 0 0 0 0 0 0 0 0 0 0 0 0 0 0 0 0 0 0 0 0 0 0 0 0 0 0 0 3 2 2 2 2 2 2 1 1 2 2 1 1 0 0 0 0 0 0 0 0
0 0 0 0 0 0 0 0 0 0 0 0 0 0 0 0 0 0 0 0 0 0 0 0 0 0 0 0 1 2 3 3 3 3 2 2 2 1 2 2 1 0 0 0 0 0 0 0 0
0 0 0 0 0 0 0 0 0 0 0 0 0 0 0 0 0 0 0 0 0 0 0 0 0 0 0 0 0 2 2 2 1 3 2 3 2 2 1 1 1 1 0 0 0 0 0 0 0
0 0 0 0 0 0 0 0 0 0 0 0 0 0 0 0 0 0 0 0 0 0 0 0 0 0 0 0 0 0 1 1 1 1 2 2 3 2 2 1 1 1 0 0 0 0 0 0 0
0 0 0 0 0 0 0 0 0 0 0 0 0 0 0 0 0 0 0 0 0 -0 -0 0 0 0 0 0 0 0 0 0 0 1 1 2 2 3 1 1 1 1 1 0 0 0 0 0 0
0 0 0 0 0 0 0 0 0 0 0 0 0 0 0 0 0 0 0 -0 -0 -0 -0 -0 -0 0 0 0 0 0 0 0 0 1 1 1 1 2 1 0 0 0 0 0 0 0 0 0 0
0 0 0 0 0 0 0 0 0 0 0 0 0 0 0 0 0 -0 -0 -0 -0 -0 -0 -0 -0 -0 0 0 0 0 0 0 1 1 1 1 1 1 0 0 0 0 1 0 0 0 0 0 0
0 0 0 0 0 0 0 0 0 0 0 0 0 0 0 0 0 -0 -0 -0 -0 -0 -0 -0 -0 -0 -0 0 0 0 0 0 1 1 1 1 1 1 1 0 0 0 1 0 0 0 0 0 0
0 0 0 0 0 0 0 0 0 0 0 0 0 0 0 -0 0 -0 -0 -0 -0 -0 -0 -0 -0 -0 0 0 0 0 0 1 1 1 1 1 1 1 1 1 0 0 0 0 0 0 0 0 0
0 0 0 0 0 0 0 0 0 0 0 0 0 -0 0 0 -0 -0 -0 -0 -0 -0 -0 -0 -0 -0 0 0 0 0 0 0 0 0 1 1 1 1 1 1 1 1 0 0 0 0 0 0 0
Wind_Speed_500mb
5 5 5 1 7 10 5 12 5 19 21 17 6 10 20 13 4 3 4 6 3 33 48 43 38 34 30 26 24 29 35 39 38 37 35 33 33 36 38 37 35 33 28 25 24 20 19 15 9
7 5 3 4 9 8 6 9 17 9 17 20 8 15 17 7 8 12 6 3 10 32 42 39 36 33 30 28 24 27 33 36 38 38 37 37 36 37 38 38 34 31 27 26 25 21 18 13 8
9 7 4 8 7 6 2 11 14 22 15 7 6 14 8 5 10 7 8 8 10 31 39 37 35 32 29 27 26 24 29 34 36 39 40 39 39 39 39 39 34 30 28 27 25 20 17 13 8
5 5 11 9 9 2 2 14 16 23 27 19 14 10 11 14 6 12 12 5 10 25 37 34 34 31 28 27 27 26 25 31 35 38 40 41 40 41 42 42 36 31 29 28 24 20 17 14 11
9 7 8 10 4 4 7 13 20 16 10 26 8 6 10 27 28 24 18 9 10 16 28 32 30 30 30 29 27 27 26 27 33 35 38 40 42 44 46 45 38 33 30 28 24 20 17 15 14
8 6 10 6 5 8 12 17 21 15 31 34 22 7 9 9 12 14 14 16 14 9 11 27 29 28 30 30 29 28 28 27 31 35 36 38 41 45 48 47 41 36 32 29 23 19 17 16 16
13 8 8 7 7 3 6 13 12 12 22 26 14 6 13 18 12 11 5 13 11 9 5 12 27 31 31 32 31 30 29 29 29 34 36 37 40 44 48 47 44 40 36 30 23 20 18 17 16
8 9 7 1 2 3 10 14 10 16 9 27 26 9 7 20 23 19 12 4 8 9 7 11 20 32 34 35 35 34 33 33 32 33 37 38 40 43 46 47 45 42 37 32 26 21 18 17 16
6 10 4 5 3 8 16 11 11 10 20 21 15 7 11 14 18 16 10 12 18 17 15 16 18 25 33 37 38 39 38 38 38 37 38 41 43 45 46 47 46 44 40 35 29 23 20 19 17
12 8 11 3 3 4 8 7 15 4 15 13 42 29 29 27 19 20 15 15 13 24 25 24 24 24 29 36 42 43 43 44 44 43 43 44 46 47 47 48 47 45 41 38 33 27 22 21 18
4 6 2 2 4 12 7 9 9 10 7 29 30 36 28 28 28 25 21 21 21 19 19 23 31 32 31 32 36 46 47 47 49 49 48 48 49 50 51 51 50 48 44 41 37 29 23 22 20
8 8 2 11 15 9 5 6 11 7 8 26 33 36 37 28 25 28 32 32 30 29 28 29 30 30 37 36 36 38 48 51 52 55 54 56 55 53 52 53 53 49 46 42 37 31 25 24 22
8 8 19 31 24 11 5 2 6 6 15 21 26 33 40 40 39 36 37 33 31 34 42 39 36 36 37 40 41 40 42 45 52 59 62 62 60 56 54 52 53 50 46 43 39 33 29 25 25
10 16 28 14 11 4 2 4 4 5 11 21 31 39 46 47 44 47 47 46 41 39 35 42 45 36 43 43 42 44 47 44 44 54 66 65 62 59 56 52 52 50 47 44 41 36 32 30 30
11 12 12 4 8 8 12 12 8 11 16 25 30 36 41 48 49 49 50 51 53 51 46 37 44 48 48 49 49 47 47 47 44 41 54 65 64 59 57 55 53 48 47 45 42 40 37 35 31
10 10 11 15 14 2 8 15 15 22 27 32 36 39 39 41 50 55 58 58 48 47 51 55 48 46 53 62 53 52 50 50 47 43 45 56 61 59 59 57 55 49 47 47 44 43 41 38 34
13 4 9 16 16 7 2 16 16 23 26 35 39 37 39 46 49 45 49 51 54 56 58 54 60 61 52 61 63 64 60 52 53 50 49 49 52 60 61 60 56 52 49 47 44 44 40 43 39
9 6 9 12 13 5 17 21 16 31 39 37 39 23 26 34 36 34 37 42 44 47 53 56 53 63 59 57 70 65 71 58 57 51 48 51 50 57 55 62 60 57 54 49 45 46 38 39 37
6 7 10 10 13 8 14 18 18 40 43 44 23 15 25 31 42 39 35 34 29 28 41 54 53 46 56 56 66 65 66 67 66 64 58 57 53 57 57 57 55 58 60 54 47 46 40 39 40
8 6 8 13 11 9 19 44 23 19 23 16 7 14 24 26 39 41 41 44 45 39 32 24 40 42 42 55 61 74 74 80 76 69 62 57 51 52 54 57 55 52 56 61 57 55 49 44 45
3 6 6 13 10 10 14 15 8 4 7 11 8 11 13 17 27 39 43 49 52 59 59 49 32 27 46 48 57 67 85 81 82 75 70 59 54 50 51 53 58 61 54 59 63 63 61 55 51
5 6 8 14 9 16 5 14 8 3 13 8 8 7 10 15 24 31 40 47 55 60 64 59 48 40 32 30 47 63 77 88 75 72 63 62 62 60 53 50 61 63 64 63 61 68 68 61 60
12 7 11 11 6 8 8 2 13 5 10 14 14 6 7 10 21 34 41 47 50 60 68 67 57 45 47 46 30 45 63 81 87 71 65 71 62 65 57 47 51 64 67 68 71 67 75 72 64
6 8 7 7 5 3 5 7 10 8 9 6 5 14 11 5 18 20 40 48 52 58 60 71 68 60 51 46 40 33 57 66 84 88 81 74 68 63 56 51 52 60 70 72 72 73 77 76 69
15 12 9 12 9 9 3 7 18 15 14 12 17 17 8 7 12 21 28 45 52 67 80 74 73 74 67 56 45 39 37 64 73 82 87 77 66 65 57 48 50 58 65 66 68 78 82 83 78
2 11 9 9 6 11 11 13 12 9 12 13 11 18 22 20 20 27 39 54 64 81 91 89 87 79 73 63 53 44 43 42 69 75 80 79 73 65 41 40 42 48 50 53 61 63 95 88 76
5 3 4 3 2 7 7 13 17 12 13 17 27 26 31 29 28 38 51 62 70 87 109 105 95 88 78 63 54 47 37 43 49 58 67 63 57 39 39 43 43 44 45 58 53 41 18 44 43
9 13 4 5 6 10 11 11 15 14 19 18 18 28 33 33 36 49 61 72 78 95 112 86 82 80 68 58 46 45 37 39 39 38 43 48 48 45 50 44 45 49 51 58 60 59 37 60 86
4 3 3 6 7 8 8 9 12 15 22 19 19 38 38 31 48 60 74 80 92 110 87 80 75 67 45 38 38 37 35 30 31 32 38 46 38 43 48 45 44 50 60 62 60 66 65 66 76
11 15 14 9 10 11 7 26 22 22 19 17 32 57 45 46 64 74 84 94 96 84 74 73 61 59 44 33 31 31 31 20 24 35 41 36 41 47 46 43 41 45 53 62 66 63 60 82 78
Wind_Direction_500mb
16 2 1 342 66 66 47 334 268 320 350 15 351 133 124 73 94 204 100 184 195 172 176 176 175 175 174 173 167 172 175 174 174 173 169 165 165 170 168 165 162 159 155 151 151 153 146 149 136
50 47 34 52 77 64 308 297 323 250 276 300 13 62 51 48 69 105 78 211 184 174 176 179 177 177 178 175 173 174 179 183 184 181 178 175 175 178 176 172 165 164 163 157 154 157 155 168 169
68 80 45 79 86 100 349 310 286 296 325 262 109 66 81 40 30 47 93 100 190 182 184 183 183 183 185 185 181 179 181 186 190 190 188 187 186 185 182 177 171 169 165 161 161 164 170 183 204
91 70 61 76 93 107 115 303 316 348 14 31 88 39 66 43 44 51 39 96 142 183 190 189 188 189 191 193 193 188 187 190 191 194 196 197 194 191 187 183 178 175 174 171 168 174 185 194 218
70 57 62 81 4 311 287 319 3 13 15 17 43 58 70 75 73 52 55 66 124 171 198 201 200 197 198 198 200 199 195 195 197 197 199 200 199 197 191 188 186 183 180 175 175 180 192 204 219
63 68 58 77 321 301 298 343 4 25 16 26 56 59 60 70 64 62 85 87 111 138 184 207 210 211 210 208 205 205 204 202 200 199 198 200 201 200 195 193 193 192 186 184 182 185 197 208 226
104 75 137 148 345 35 296 345 12 351 22 6 3 63 56 33 18 17 47 129 137 153 179 208 214 214 218 220 217 212 210 209 206 204 201 201 202 202 201 201 201 201 198 199 197 198 204 213 221
84 89 91 106 31 231 13 354 346 5 9 1 23 28 355 26 15 358 322 236 194 198 208 219 226 226 227 226 225 223 218 215 213 210 207 207 206 207 208 209 210 210 210 211 212 210 211 219 224
43 63 111 119 94 304 347 16 8 349 341 352 358 2 344 345 347 344 352 282 271 249 238 242 241 239 236 238 235 228 225 221 218 215 213 213 213 213 214 216 217 216 217 218 221 216 215 220 230
67 84 200 184 72 329 305 350 328 342 329 353 343 334 339 328 318 320 311 307 288 265 263 257 255 250 244 242 238 234 230 228 225 223 220 218 219 219 220 221 221 220 220 221 222 219 220 221 230
47 121 145 89 149 335 306 337 326 312 4 6 342 346 341 327 310 316 299 294 299 288 274 269 260 266 258 250 245 236 234 234 231 229 226 224 224 223 223 223 224 223 222 222 223 224 224 227 229
82 33 94 300 312 310 289 3 328 101 15 27 27 18 19 5 341 326 312 298 285 282 285 269 263 267 258 255 249 248 242 240 238 234 230 229 229 228 227 228 227 227 226 226 227 229 227 230 230
58 323 306 317 312 321 157 209 230 159 7 0 346 357 356 351 343 327 328 325 319 291 290 274 265 259 255 248 248 247 246 249 251 243 234 234 234 233 232 232 233 230 230 230 232 235 233 232 236
322 304 313 334 339 323 266 313 135 218 335 344 348 343 340 338 336 326 317 308 307 306 306 276 261 258 251 248 249 249 250 253 257 251 241 236 238 238 237 237 238 236 235 234 236 238 236 230 235
328 352 345 2 329 302 320 339 309 298 320 329 336 333 329 326 321 316 313 305 295 287 286 288 280 261 249 249 252 248 250 250 253 257 245 239 240 241 241 241 242 242 242 241 238 238 236 232 234
29 50 14 294 322 319 44 277 281 302 330 325 323 326 325 320 315 311 304 299 292 284 277 273 273 277 256 244 249 247 248 249 249 253 247 242 244 242 243 244 246 246 243 244 242 241 238 232 230
7 278 308 315 322 291 187 271 269 316 319 303 310 323 327 320 317 313 307 298 289 290 284 268 260 264 269 254 245 246 243 251 252 250 251 245 247 247 241 243 247 247 245 242 241 238 241 232 229
281 317 265 260 292 345 290 262 291 298 306 288 297 340 357 355 344 335 334 312 296 284 276 274 269 254 254 257 245 242 247 246 250 259 259 257 251 252 247 246 245 246 245 240 237 235 238 225 218
234 204 243 262 273 306 257 269 260 277 285 275 303 347 351 357 1 3 5 359 327 312 286 275 275 254 248 249 248 239 241 245 245 251 252 253 255 256 260 251 249 248 245 241 236 230 223 218 218
201 226 273 289 285 310 290 287 294 230 250 292 228 329 355 355 1 11 16 18 25 22 4 320 280 264 248 248 248 244 239 238 240 247 248 243 249 256 258 259 253 249 248 240 231 227 221 220 226
281 179 265 246 294 257 288 285 238 295 248 260 310 346 17 16 15 10 14 14 16 20 20 17 8 295 265 248 246 243 243 241 236 238 244 243 249 254 262 262 255 254 250 244 233 227 224 224 228
321 195 247 279 326 302 92 288 313 1 297 257 308 4 6 24 17 6 358 2 5 8 10 14 17 15 1 278 245 244 246 242 241 244 241 246 249 246 253 264 265 262 257 247 239 228 228 227 230
234 326 270 286 268 3 326 41 268 296 265 272 311 302 294 17 11 5 1 357 354 357 359 1 8 5 8 18 310 251 252 248 244 239 241 245 248 246 246 258 265 263 259 254 245 235 230 227 232
324 331 13 49 72 14 249 104 271 260 213 280 292 261 247 312 347 344 337 338 337 346 343 349 353 356 352 357 2 318 254 251 247 242 238 239 246 244 244 251 261 262 258 258 253 241 233 229 230
43 42 336 347 0 234 355 328 243 256 226 233 263 277 245 308 323 335 338 341 338 338 338 336 336 338 341 341 341 337 308 251 249 251 247 244 247 241 245 260 266 268 260 257 254 246 231 229 225
218 145 154 271 246 274 286 242 254 247 271 246 279 258 238 270 303 324 333 333 337 338 334 328 322 321 326 326 329 320 332 285 247 246 249 252 257 242 251 269 272 264 257 255 249 260 236 233 222
183 175 190 156 254 286 246 288 304 276 264 272 279 266 262 275 297 318 328 332 334 333 332 326 318 309 309 311 313 321 310 312 259 240 245 246 245 259 268 267 261 257 253 242 241 211 219 205 212
165 160 57 352 268 253 251 252 238 285 286 298 294 292 291 290 305 325 328 326 321 323 327 320 319 310 300 298 296 302 306 314 269 244 236 231 245 251 260 260 259 248 243 238 235 233 244 215 203
196 196 133 184 199 226 290 247 217 237 278 272 271 307 313 309 321 326 324 320 319 321 320 316 315 316 299 286 288 285 303 310 268 227 220 231 234 245 254 256 251 245 237 231 230 224 202 197 202
193 205 161 152 220 230 247 271 247 265 263 267 298 318 316 320 325 324 322 321 317 319 318 317 314 318 298 286 291 274 291 280 256 203 207 217 237 245 246 245 239 241 233 228 226 223 207 211 213
Wind_Speed_850mb
5 5 5 1 7 10 5 12 5 19 21 17 6 10 20 13 4 3 4 6 3 33 48 43 38 34 30 26 24 29 35 39 38 37 35 33 33 36 38 37 35 33 28 25 24 20 19 15 9
7 5 3 4 9 8 6 9 17 9 17 20 8 15 17 7 8 12 6 3 10 32 42 39 36 33 30 28 24 27 33 36 38 38 37 37 36 37 38 38 34 31 27 26 25 21 18 13 8
9 7 4 8 7 6 2 11 14 22 15 7 6 14 8 5 10 7 8 8 10 31 39 37 35 32 29 27 26 24 29 34 36 39 40 39 39 39 39 39 34 30 28 27 25 20 17 13 8
5 5 11 9 9 2 2 14 16 23 27 19 14 10 11 14 6 12 12 5 10 25 37 34 34 31 28 27 27 26 25 31 35 38 40 41 40 41 42 42 36 31 29 28 24 20 17 14 11
9 7 8 10 4 4 7 13 20 16 10 26 8 6 10 27 28 24 18 9 10 16 28 32 30 30 30 29 27 27 26 27 33 35 38 40 42 44 46 45 38 33 30 28 24 20 17 15 14
8 6 10 6 5 8 12 17 21 15 31 34 22 7 9 9 12 14 14 16 14 9 11 27 29 28 30 30 29 28 28 27 31 35 36 38 41 45 48 47 41 36 32 29 23 19 17 16 16
13 8 8 7 7 3 6 13 12 12 22 26 14 6 13 18 12 11 5 13 11 9 5 12 27 31 31 32 31 30 29 29 29 34 36 37 40 44 48 47 44 40 36 30 23 20 18 17 16
8 9 7 1 2 3 10 14 10 16 9 27 26 9 7 20 23 19 12 4 8 9 7 11 20 32 34 35 35 34 33 33 32 33 37 38 40 43 46 47 45 42 37 32 26 21 18 17 16
6 10 4 5 3 8 16 11 11 10 20 21 15 7 11 14 18 16 10 12 18 17 15 16 18 25 33 37 38 39 38 38 38 37 38 41 43 45 46 47 46 44 40 35 29 23 20 19 17
12 8 11 3 3 4 8 7 15 4 15 13 42 29 29 27 19 20 15 15 13 24 25 24 24 24 29 36 42 43 43 44 44 43 43 44 46 47 47 48 47 45 41 38 33 27 22 21 18
4 6 2 2 4 12 7 9 9 10 7 29 30 36 28 28 28 25 21 21 21 19 19 23 31 32 31 32 36 46 47 47 49 49 48 48 49 50 51 51 50 48 44 41 37 29 23 22 20
8 8 2 11 15 9 5 6 11 7 8 26 33 36 37 28 25 28 32 32 30 29 28 29 30 30 37 36 36 38 48 51 52 55 54 56 55 53 52 53 53 49 46 42 37 31 25 24 22
8 8 19 31 24 11 5 2 6 6 15 21 26 33 40 40 39 36 37 33 31 34 42 39 36 36 37 40 41 40 42 45 52 59 62 62 60 56 54 52 53 50 46 43 39 33 29 25 25
10 16 28 14 11 4 2 4 4 5 11 21 31 39 46 47 44 47 47 46 41 39 35 42 45 36 43 43 42 44 47 44 44 54 66 65 62 59 56 52 52 50 47 44 41 36 32 30 30
11 12 12 4 8 8 12 12 8 11 16 25 30 36 41 48 49 49 50 51 53 51 46 37 44 48 48 49 49 47 47 47 44 41 54 65 64 59 57 55 53 48 47 45 42 40 37 35 31
10 10 11 15 14 2 8 15 15 22 27 32 36 39 39 41 50 55 58 58 48 47 51 55 48 46 53 62 53 52 50 50 47 43 45 56 61 59 59 57 55 49 47 47 44 43 41 38 34
13 4 9 16 16 7 2 16 16 23 26 35 39 37 39 46 49 45 49 51 54 56 58 54 60 61 52 61 63 64 60 52 53 50 49 49 52 60 61 60 56 52 49 47 44 44 40 43 39
9 6 9 12 13 5 17 21 16 31 39 37 39 23 26 34 36 34 37 42 44 47 53 56 53 63 59 57 70 65 71 58 57 51 48 51 50 57 55 62 60 57 54 49 45 46 38 39 37
6 7 10 10 13 8 14 18 18 40 43 44 23 15 25 31 42 39 35 34 29 28 41 54 53 46 56 56 66 65 66 67 66 64 58 57 53 57 57 57 55 58 60 54 47 46 40 39 40
8 6 8 13 11 9 19 44 23 19 23 16 7 14 24 26 39 41 41 44 45 39 32 24 40 42 42 55 61 74 74 80 76 69 62 57 51 52 54 57 55 52 56 61 57 55 49 44 45
3 6 6 13 10 10 14 15 8 4 7 11 8 11 13 17 27 39 43 49 52 59 59 49 32 27 46 48 57 67 85 81 82 75 70 59 54 50 51 53 58 61 54 59 63 63 61 55 51
5 6 8 14 9 16 5 14 8 3 13 8 8 7 10 15 24 31 40 47 55 60 64 59 48 40 32 30 47 63 77 88 75 72 63 62 62 60 53 50 61 63 64 63 61 68 68 61 60
12 7 11 11 6 8 8 2 13 5 10 14 14 6 7 10 21 34 41 47 50 60 68 67 57 45 47 46 30 45 63 81 87 71 65 71 62 65 57 47 51 64 67 68 71 67 75 72 64
6 8 7 7 5 3 5 7 10 8 9 6 5 14 11 5 18 20 40 48 52 58 60 71 68 60 51 46 40 33 57 66 84 88 81 74 68 63 56 51 52 60 70 72 72 73 77 76 69
15 12 9 12 9 9 3 7 18 15 14 12 17 17 8 7 12 21 28 45 52 67 80 74 73 74 67 56 45 39 37 64 73 82 87 77 66 65 57 48 50 58 65 66 68 78 82 83 78
2 11 9 9 6 11 11 13 12 9 12 13 11 18 22 20 20 27 39 54 64 81 91 89 87 79 73 63 53 44 43 42 69 75 80 79 73 65 41 40 42 48 50 53 61 63 95 88 76
5 3 4 3 2 7 7 13 17 12 13 17 27 26 31 29 28 38 51 62 70 87 109 105 95 88 78 63 54 47 37 43 49 58 67 63 57 39 39 43 43 44 45 58 53 41 18 44 43
9 13 4 5 6 10 11 11 15 14 19 18 18 28 33 33 36 49 61 72 78 95 112 86 82 80 68 58 46 45 37 39 39 38 43 48 48 45 50 44 45 49 51 58 60 59 37 60 86
4 3 3 6 7 8 8 9 12 15 22 19 19 38 38 31 48 60 74 80 92 110 87 80 75 67 45 38 38 37 35 30 31 32 38 46 38 43 48 45 44 50 60 62 60 66 65 66 76
11 15 14 9 10 11 7 26 22 22 19 17 32 57 45 46 64 74 84 94 96 84 74 73 61 59 44 33 31 31 31 20 24 35 41 36 41 47 46 43 41 45 53 62 66 63 60 82 78
Wind_Direction_850mb
16 2 1 342 66 66 47 334 268 320 350 15 351 133 124 73 94 204 100 184 195 172 176 176 175 175 174 173 167 172 175 174 174 173 169 165 165 170 168 165 162 159 155 151 151 153 146 149 136
50 47 34 52 77 64 308 297 323 250 276 300 13 62 51 48 69 105 78 211 184 174 176 179 177 177 178 175 173 174 179 183 184 181 178 175 175 178 176 172 165 164 163 157 154 157 155 168 169
68 80 45 79 86 100 349 310 286 296 325 262 109 66 81 40 30 47 93 100 190 182 184 183 183 183 185 185 181 179 181 186 190 190 188 187 186 185 182 177 171 169 165 161 161 164 170 183 204
91 70 61 76 93 107 115 303 316 348 14 31 88 39 66 43 44 51 39 96 142 183 190 189 188 189 191 193 193 188 187 190 191 194 196 197 194 191 187 183 178 175 174 171 168 174 185 194 218
70 57 62 81 4 311 287 319 3 13 15 17 43 58 70 75 73 52 55 66 124 171 198 201 200 197 198 198 200 199 195 195 197 197 199 200 199 197 191 188 186 183 180 175 175 180 192 204 219
63 68 58 77 321 301 298 343 4 25 16 26 56 59 60 70 64 62 85 87 111 138 184 207 210 211 210 208 205 205 204 202 200 199 198 200 201 200 195 193 193 192 186 184 182 185 197 208 226
104 75 137 148 345 35 296 345 12 351 22 6 3 63 56 33 18 17 47 129 137 153 179 208 214 214 218 220 217 212 210 209 206 204 201 201 202 202 201 201 201 201 198 199 197 198 204 213 221
84 89 91 106 31 231 13 354 346 5 9 1 23 28 355 26 15 358 322 236 194 198 208 219 226 226 227 226 225 223 218 215 213 210 207 207 206 207 208 209 210 210 210 211 212 210 211 219 224
43 63 111 119 94 304 347 16 8 349 341 352 358 2 344 345 347 344 352 282 271 249 238 242 241 239 236 238 235 228 225 221 218 215 213 213 213 213 214 216 217 216 217 218 221 216 215 220 230
67 84 200 184 72 329 305 350 328 342 329 353 343 334 339 328 318 320 311 307 288 265 263 257 255 250 244 242 238 234 230 228 225 223 220 218 219 219 220 221 221 220 220 221 222 219 220 221 230
47 121 145 89 149 335 306 337 326 312 4 6 342 346 341 327 310 316 299 294 299 288 274 269 260 266 258 250 245 236 234 234 231 229 226 224 224 223 223 223 224 223 222 222 223 224 224 227 229
82 33 94 300 312 310 289 3 328 101 15 27 27 18 19 5 341 326 312 298 285 282 285 269 263 267 258 255 249 248 242 240 238 234 230 229 229 228 227 228 227 227 226 226 227 229 227 230 230
58 323 306 317 312 321 157 209 230 159 7 0 346 357 356 351 343 327 328 325 319 291 290 274 265 259 255 248 248 247 246 249 251 243 234 234 234 233 232 232 233 230 230 230 232 235 233 232 236
322 304 313 334 339 323 266 313 135 218 335 344 348 343 340 338 336 326 317 308 307 306 306 276 261 258 251 248 249 249 250 253 257 251 241 236 238 238 237 237 238 236 235 234 236 238 236 230 235
328 352 345 2 329 302 320 339 309 298 320 329 336 333 329 326 321 316 313 305 295 287 286 288 280 261 249 249 252 248 250 250 253 257 245 239 240 241 241 241 242 242 242 241 238 238 236 232 234
29 50 14 294 322 319 44 277 281 302 330 325 323 326 325 320 315 311 304 299 292 284 277 273 273 277 256 244 249 247 248 249 249 253 247 242 244 242 243 244 246 246 243 244 242 241 238 232 230
7 278 308 315 322 291 187 271 269 316 319 303 310 323 327 320 317 313 307 298 289 290 284 268 260 264 269 254 245 246 243 251 252 250 251 245 247 247 241 243 247 247 245 242 241 238 241 232 229
281 317 265 260 292 345 290 262 291 298 306 288 297 340 357 355 344 335 334 312 296 284 276 274 269 254 254 257 245 242 247 246 250 259 259 257 251 252 247 246 245 246 245 240 237 235 238 225 218
234 204 243 262 273 306 257 269 260 277 285 275 303 347 351 357 1 3 5 359 327 312 286 275 275 254 248 249 248 239 241 245 245 251 252 253 255 256 260 251 249 248 245 241 236 230 223 218 218
201 226 273 289 285 310 290 287 294 230 250 292 228 329 355 355 1 11 16 18 25 22 4 320 280 264 248 248 248 244 239 238 240 247 248 243 249 256 258 259 253 249 248 240 231 227 221 220 226
281 179 265 246 294 257 288 285 238 295 248 260 310 346 17 16 15 10 14 14 16 20 20 17 8 295 265 248 246 243 243 241 236 238 244 243 249 254 262 262 255 254 250 244 233 227 224 224 228
321 195 247 279 326 302 92 288 313 1 297 257 308 4 6 24 17 6 358 2 5 8 10 14 17 15 1 278 245 244 246 242 241 244 241 246 249 246 253 264 265 262 257 247 239 228 228 227 230
234 326 270 286 268 3 326 41 268 296 265 272 311 302 294 17 11 5 1 357 354 357 359 1 8 5 8 18 310 251 252 248 244 239 241 245 248 246 246 258 265 263 259 254 245 235 230 227 232
324 331 13 49 72 14 249 104 271 260 213 280 292 261 247 312 347 344 337 338 337 346 343 349 353 356 352 357 2 318 254 251 247 242 238 239 246 244 244 251 261 262 258 258 253 241 233 229 230
43 42 336 347 0 234 355 328 243 256 226 233 263 277 245 308 323 335 338 341 338 338 338 336 336 338 341 341 341 337 308 251 249 251 247 244 247 241 245 260 266 268 260 257 254 246 231 229 225
218 145 154 271 246 274 286 242 254 247 271 246 279 258 238 270 303 324 333 333 337 338 334 328 322 321 326 326 329 320 332 285 247 246 249 252 257 242 251 269 272 264 257 255 249 260 236 233 222
183 175 190 156 254 286 246 288 304 276 264 272 279 266 262 275 297 318 328 332 334 333 332 326 318 309 309 311 313 321 310 312 259 240 245 246 245 259 268 267 261 257 253 242 241 211 219 205 212
165 160 57 352 268 253 251 252 238 285 286 298 294 292 291 290 305 325 328 326 321 323 327 320 319 310 300 298 296 302 306 314 269 244 236 231 245 251 260 260 259 248 243 238 235 233 244 215 203
196 196 133 184 199 226 290 247 217 237 278 272 271 307 313 309 321 326 324 320 319 321 320 316 315 316 299 286 288 285 303 310 268 227 220 231 234 245 254 256 251 245 237 231 230 224 202 197 202
193 205 161 152 220 230 247 271 247 265 263 267 298 318 316 320 325 324 322 321 317 319 318 317 314 318 298 286 291 274 291 280 256 203 207 217 237 245 246 245 239 241 233 228 226 223 207 211 213